QPF
0.00 0.00 0.00 0.00 0.00 0.00 0.00 0.00 0.00 0.00 0.00 0.00 0.00 0.00 0.00 0.00 0.00 0.00 0.00 0.00 0.00 0.00 0.00 0.00 0.00 0.00 0.00 0.00 0.00 0.00 0.00 0.00 0.00 0.00 0.00 0.00 0.00 0.00 0.00 0.00 0.00 0.00 0.00 0.00
0.00 0.00 0.00 0.00 0.00 0.00 0.00 0.00 0.00 0.00 0.00 0.00 0.00 0.00 0.00 0.00 0.00 0.00 0.00 0.00 0.00 0.00 0.00 0.00 0.00 0.00 0.00 0.00 0.00 0.00 0.00 0.00 0.00 0.00 0.00 0.00 0.00 0.00 0.00 0.00 0.00 0.00 0.03 0.04
0.00 0.00 0.00 0.00 0.00 0.00 0.00 0.00 0.00 0.00 0.00 0.00 0.00 0.00 0.00 0.00 0.00 0.00 0.00 0.00 0.00 0.00 0.00 0.00 0.00 0.00 0.00 0.00 0.00 0.00 0.00 0.00 0.00 0.00 0.00 0.00 0.00 0.00 0.00 0.00 0.00 0.00 0.01 0.01
0.00 0.00 0.00 0.00 0.00 0.00 0.00 0.00 0.00 0.00 0.00 0.00 0.00 0.00 0.00 0.00 0.00 0.00 0.00 0.00 0.00 0.00 0.00 0.00 0.00 0.00 0.00 0.00 0.00 0.00 0.00 0.00 0.00 0.00 0.00 0.00 0.00 0.00 0.00 0.00 0.00 0.00 0.00 0.00
0.00 0.00 0.00 0.00 0.00 0.00 0.00 0.00 0.00 0.00 0.00 0.00 0.00 0.00 0.00 0.00 0.00 0.00 0.00 0.00 0.00 0.00 0.00 0.00 0.00 0.00 0.00 0.00 0.00 0.00 0.00 0.00 0.00 0.00 0.00 0.00 0.00 0.00 0.00 0.00 0.00 0.00 0.00 0.00
0.00 0.00 0.00 0.00 0.00 0.00 0.00 0.00 0.00 0.00 0.00 0.00 0.00 0.00 0.00 0.00 0.00 0.00 0.00 0.00 0.00 0.00 0.00 0.00 0.00 0.00 0.00 0.00 0.00 0.00 0.00 0.00 0.00 0.00 0.00 0.00 0.00 0.00 0.00 0.00 0.00 0.00 0.00 0.00
0.00 0.00 0.00 0.00 0.00 0.00 0.00 0.00 0.00 0.00 0.00 0.00 0.00 0.00 0.00 0.00 0.00 0.00 0.00 0.00 0.00 0.00 0.00 0.00 0.00 0.00 0.00 0.00 0.00 0.00 0.00 0.00 0.00 0.00 0.00 0.00 0.00 0.00 0.00 0.00 0.00 0.00 0.00 0.00
0.00 0.00 0.00 0.00 0.00 0.00 0.00 0.00 0.00 0.00 0.00 0.00 0.00 0.00 0.00 0.00 0.00 0.00 0.00 0.00 0.00 0.00 0.00 0.00 0.00 0.00 0.00 0.00 0.00 0.00 0.00 0.00 0.00 0.00 0.00 0.00 0.00 0.00 0.00 0.00 0.00 0.00 0.00 0.00
0.00 0.00 0.00 0.00 0.00 0.00 0.00 0.00 0.00 0.00 0.00 0.00 0.00 0.00 0.00 0.00 0.00 0.00 0.00 0.00 0.00 0.00 0.00 0.00 0.00 0.00 0.00 0.00 0.00 0.00 0.00 0.00 0.00 0.00 0.00 0.00 0.00 0.00 0.00 0.00 0.00 0.00 0.00 0.00
0.00 0.00 0.00 0.00 0.00 0.00 0.00 0.00 0.00 0.00 0.00 0.00 0.00 0.00 0.00 0.00 0.00 0.00 0.00 0.00 0.00 0.00 0.00 0.00 0.00 0.00 0.00 0.00 0.00 0.00 0.00 0.00 0.00 0.00 0.00 0.00 0.00 0.00 0.00 0.00 0.00 0.00 0.00 0.00
0.00 0.00 0.00 0.00 0.00 0.00 0.00 0.00 0.00 0.00 0.00 0.00 0.00 0.00 0.00 0.00 0.00 0.00 0.00 0.00 0.00 0.00 0.00 0.00 0.00 0.00 0.00 0.00 0.00 0.00 0.00 0.00 0.00 0.00 0.00 0.00 0.00 0.00 0.00 0.00 0.00 0.00 0.00 0.00
0.00 0.00 0.02 0.00 0.00 0.00 0.00 0.00 0.00 0.01 0.01 0.00 0.00 0.01 0.00 0.00 0.00 0.00 0.00 0.00 0.00 0.00 0.00 0.00 0.00 0.00 0.00 0.00 0.00 0.00 0.00 0.00 0.00 0.00 0.00 0.00 0.00 0.00 0.00 0.00 0.00 0.00 0.00 0.00
0.00 0.00 0.04 0.04 0.02 0.00 0.00 0.00 0.00 0.00 0.01 0.01 0.01 0.02 0.00 0.00 0.00 0.00 0.00 0.00 0.00 0.00 0.00 0.00 0.00 0.00 0.00 0.00 0.00 0.00 0.00 0.00 0.00 0.00 0.00 0.00 0.00 0.00 0.00 0.00 0.00 0.00 0.00 0.00
0.00 0.00 0.03 0.05 0.03 0.00 0.00 0.00 0.00 0.00 0.01 0.01 0.01 0.02 0.00 0.00 0.00 0.00 0.00 0.00 0.00 0.00 0.00 0.00 0.00 0.00 0.00 0.00 0.00 0.00 0.00 0.00 0.00 0.00 0.00 0.00 0.00 0.00 0.00 0.00 0.00 0.00 0.00 0.00
0.00 0.02 0.02 0.01 0.00 0.01 0.01 0.00 0.00 0.00 0.00 0.00 0.00 0.01 0.00 0.00 0.00 0.00 0.00 0.00 0.00 0.00 0.00 0.00 0.00 0.00 0.00 0.00 0.00 0.00 0.00 0.00 0.00 0.00 0.00 0.00 0.00 0.00 0.00 0.00 0.00 0.00 0.00 0.00
0.01 0.04 0.03 0.03 0.00 0.00 0.01 0.01 0.00 0.00 0.00 0.00 0.00 0.00 0.00 0.01 0.01 0.00 0.00 0.00 0.00 0.00 0.00 0.00 0.00 0.00 0.00 0.00 0.00 0.00 0.00 0.00 0.00 0.00 0.00 0.00 0.00 0.00 0.00 0.00 0.00 0.00 0.00 0.00
0.02 0.02 0.03 0.03 0.00 0.00 0.00 0.00 0.00 0.00 0.00 0.00 0.00 0.00 0.00 0.00 0.00 0.00 0.00 0.00 0.00 0.00 0.00 0.00 0.00 0.00 0.00 0.00 0.00 0.00 0.00 0.00 0.00 0.00 0.00 0.00 0.00 0.00 0.00 0.00 0.00 0.00 0.00 0.00
0.03 0.02 0.02 0.02 0.00 0.00 0.00 0.00 0.00 0.00 0.00 0.00 0.00 0.00 0.00 0.00 0.00 0.00 0.00 0.00 0.00 0.00 0.00 0.00 0.00 0.00 0.00 0.00 0.00 0.00 0.00 0.00 0.00 0.00 0.00 0.00 0.00 0.00 0.00 0.00 0.00 0.00 0.00 0.00
0.00 0.01 0.01 0.00 0.00 0.00 0.00 0.00 0.00 0.00 0.00 0.00 0.00 0.00 0.00 0.00 0.00 0.00 0.00 0.00 0.00 0.00 0.00 0.00 0.00 0.00 0.00 0.00 0.00 0.00 0.00 0.00 0.00 0.00 0.00 0.00 0.00 0.00 0.00 0.00 0.00 0.00 0.00 0.00
0.00 0.00 0.00 0.00 0.00 0.00 0.01 0.00 0.00 0.00 0.01 0.00 0.00 0.00 0.00 0.00 0.00 0.00 0.00 0.00 0.00 0.00 0.00 0.00 0.00 0.00 0.00 0.00 0.00 0.00 0.00 0.00 0.00 0.00 0.00 0.00 0.00 0.00 0.00 0.00 0.00 0.00 0.00 0.00
0.00 0.00 0.00 0.00 0.00 0.01 0.00 0.00 0.00 0.01 0.02 0.00 0.00 0.00 0.00 0.00 0.00 0.00 0.00 0.00 0.00 0.00 0.00 0.00 0.00 0.00 0.00 0.00 0.00 0.00 0.00 0.00 0.00 0.00 0.00 0.00 0.00 0.00 0.00 0.00 0.01 0.01 0.01 0.00
0.00 0.00 0.00 0.00 0.00 0.01 0.00 0.00 0.01 0.01 0.00 0.00 0.00 0.00 0.00 0.00 0.00 0.00 0.00 0.00 0.00 0.00 0.00 0.00 0.00 0.00 0.00 0.00 0.00 0.00 0.00 0.00 0.00 0.00 0.00 0.00 0.00 0.00 0.00 0.01 0.01 0.01 0.01 0.00
0.00 0.00 0.00 0.01 0.02 0.01 0.01 0.01 0.00 0.00 0.00 0.00 0.00 0.00 0.00 0.00 0.00 0.00 0.00 0.00 0.00 0.00 0.00 0.00 0.00 0.00 0.00 0.00 0.00 0.00 0.00 0.00 0.00 0.00 0.00 0.00 0.00 0.00 0.00 0.00 0.01 0.01 0.01 0.00
0.01 0.00 0.01 0.02 0.01 0.00 0.00 0.00 0.00 0.00 0.00 0.00 0.00 0.00 0.00 0.00 0.00 0.00 0.00 0.00 0.00 0.00 0.00 0.00 0.00 0.00 0.00 0.00 0.00 0.00 0.00 0.00 0.00 0.00 0.00 0.00 0.00 0.00 0.00 0.00 0.00 0.01 0.00 0.00
0.01 0.01 0.01 0.01 0.00 0.00 0.00 0.00 0.00 0.00 0.00 0.00 0.00 0.00 0.00 0.00 0.00 0.00 0.00 0.00 0.00 0.00 0.00 0.00 0.00 0.00 0.00 0.00 0.00 0.00 0.00 0.00 0.00 0.00 0.00 0.00 0.00 0.00 0.00 0.00 0.00 0.00 0.00 0.00
0.03 0.04 0.03 0.03 0.01 0.01 0.00 0.00 0.00 0.00 0.00 0.00 0.00 0.00 0.00 0.00 0.00 0.00 0.00 0.00 0.00 0.01 0.01 0.01 0.00 0.00 0.00 0.00 0.00 0.00 0.00 0.00 0.00 0.00 0.00 0.00 0.00 0.00 0.00 0.00 0.00 0.00 0.00 0.00
MSLP
1003.27 1002.68 1001.02 1000.25 1000.20 999.92 999.21 998.98 998.60 998.58 998.49 998.52 998.27 998.22 998.59 998.62 998.90 998.50 997.92 998.18 998.69 999.31 1000.24 1002.21 1003.41 1004.79 1004.73 1004.70 1005.22 1005.25 1005.34 1005.38 1005.14 1005.43 1005.78 1006.07 1006.02 1006.33 1006.70 1006.79 1006.91 1007.46 1007.97 1008.95
1001.83 1000.53 999.74 999.79 999.80 1000.01 999.62 999.07 998.66 998.47 998.19 998.16 998.01 997.77 997.81 997.97 997.74 997.68 997.55 998.06 998.33 998.86 999.36 1000.73 1002.78 1004.10 1004.35 1005.09 1005.37 1005.35 1005.81 1005.73 1005.33 1005.40 1005.67 1005.43 1005.57 1005.65 1005.95 1006.08 1006.81 1007.50 1008.08 1008.65
999.20 998.85 999.41 999.10 999.20 999.41 999.30 999.02 998.85 998.45 997.98 998.02 997.53 996.97 996.68 997.02 997.10 996.90 997.01 997.74 997.98 998.21 998.68 999.40 1000.88 1002.83 1003.82 1004.65 1004.87 1005.52 1005.41 1005.66 1005.92 1005.98 1005.83 1006.03 1006.09 1005.88 1005.68 1005.95 1006.63 1007.41 1007.93 1008.39
998.49 998.11 998.17 998.50 998.66 998.89 998.53 999.09 999.16 998.82 998.45 997.39 997.81 996.48 995.91 996.18 996.06 996.00 996.22 996.59 997.18 997.82 998.31 999.00 999.88 1002.17 1003.64 1004.02 1005.00 1005.67 1005.87 1005.65 1005.93 1006.23 1006.02 1006.41 1006.37 1005.87 1005.72 1005.92 1006.01 1006.74 1007.84 1008.01
997.33 997.46 997.39 997.69 997.98 998.39 998.26 998.36 998.51 998.81 998.60 998.30 997.58 998.12 996.70 996.36 995.66 995.45 995.70 996.36 996.91 997.45 997.36 998.18 999.30 1001.13 1002.47 1003.45 1004.45 1005.41 1005.86 1005.75 1005.89 1006.27 1006.66 1006.84 1006.82 1005.78 1005.84 1005.86 1006.59 1007.04 1007.78 1008.08
996.92 997.13 996.98 996.99 997.65 997.99 998.33 998.26 998.25 998.38 998.21 997.78 997.19 998.39 998.08 997.83 997.22 995.37 995.59 996.19 996.88 997.32 997.67 998.69 1000.50 1001.18 1002.00 1003.24 1004.44 1005.93 1006.29 1006.24 1005.95 1006.62 1006.72 1006.47 1006.27 1006.03 1005.82 1006.30 1006.86 1007.27 1007.56 1008.03
996.70 995.98 996.45 996.63 996.77 997.40 997.73 997.75 997.57 997.82 997.17 996.87 996.80 997.58 997.34 999.33 999.37 995.60 995.64 997.53 998.66 999.01 999.44 1000.00 1000.97 1001.55 1002.07 1003.56 1004.79 1005.79 1006.27 1006.52 1006.52 1006.29 1006.56 1007.12 1007.18 1007.02 1007.08 1007.23 1007.05 1007.18 1006.91 1007.01
995.32 995.71 995.56 996.07 996.26 995.97 996.50 996.77 996.26 996.21 996.10 995.97 996.20 996.78 996.69 997.89 998.35 997.83 997.96 998.85 999.63 1000.11 1000.62 1001.42 1002.25 1002.49 1003.11 1003.85 1004.89 1005.87 1006.52 1007.11 1007.24 1007.42 1007.72 1007.89 1007.88 1007.06 1007.21 1007.71 1007.97 1008.10 1007.83 1007.74
994.84 994.54 995.22 995.80 996.05 995.79 995.85 996.03 995.95 996.03 997.45 997.16 996.87 996.78 997.52 997.65 998.32 998.47 999.06 999.88 1000.70 1001.39 1001.93 1002.45 1003.24 1003.75 1004.91 1005.59 1006.29 1006.68 1007.40 1007.85 1007.97 1008.04 1008.07 1008.47 1008.46 1008.50 1008.55 1008.85 1009.03 1008.67 1008.67 1008.73
995.39 995.28 995.02 995.66 996.17 996.16 995.95 996.79 996.64 996.34 997.49 997.55 997.41 997.54 996.02 996.92 997.68 998.61 999.51 1000.22 1001.33 1002.07 1002.70 1003.54 1004.20 1004.94 1005.55 1006.23 1006.79 1007.26 1007.56 1008.02 1008.25 1008.29 1008.33 1008.54 1008.52 1008.57 1008.84 1008.90 1008.95 1009.00 1008.97 1008.83
996.30 996.31 995.82 995.67 995.69 995.84 996.07 996.79 997.87 997.26 996.90 997.31 998.00 998.57 999.43 997.87 996.77 998.09 999.31 1000.55 1001.53 1002.44 1003.10 1003.76 1004.35 1004.88 1005.24 1005.70 1006.52 1007.49 1007.67 1007.69 1008.03 1008.22 1008.70 1008.66 1008.87 1008.92 1008.56 1008.87 1008.91 1008.89 1008.93 1008.70
995.72 995.80 996.23 996.06 996.17 996.53 995.91 996.28 998.05 998.01 998.72 998.59 998.29 998.04 999.24 999.74 997.24 998.30 999.46 1000.68 1001.84 1002.62 1003.33 1004.00 1004.82 1005.33 1005.86 1006.25 1006.50 1007.25 1007.74 1007.68 1008.08 1008.26 1008.27 1008.38 1008.63 1008.74 1008.86 1008.94 1009.21 1009.06 1008.88 1008.58
995.13 995.54 996.91 998.07 999.29 997.47 996.94 997.26 997.64 998.79 999.42 1000.10 1000.25 999.61 999.07 999.28 998.80 999.58 1000.35 1001.52 1002.58 1003.22 1003.85 1004.44 1004.97 1005.68 1006.24 1006.92 1007.18 1007.67 1008.08 1008.13 1008.46 1008.66 1008.63 1008.59 1008.86 1008.95 1008.90 1008.96 1008.83 1008.90 1009.12 1008.69
995.03 995.80 996.52 997.29 997.07 997.34 997.42 997.32 998.00 999.12 1000.49 1001.10 1001.18 1001.53 1001.10 1000.21 1000.17 1000.60 1001.39 1002.13 1002.84 1003.55 1004.29 1005.28 1005.68 1006.15 1006.76 1007.18 1007.68 1007.86 1008.08 1008.24 1008.64 1008.84 1008.76 1008.80 1008.73 1008.89 1008.89 1008.93 1008.93 1008.81 1008.67 1008.58
995.69 996.25 996.66 998.72 998.27 998.28 998.11 997.56 998.27 998.61 999.34 1000.07 999.99 1000.76 1001.67 1001.49 1002.04 1002.42 1002.19 1002.64 1003.31 1003.90 1004.70 1005.65 1006.43 1006.88 1007.30 1007.84 1008.27 1008.31 1008.76 1008.93 1009.21 1009.01 1008.93 1008.94 1008.79 1008.53 1008.54 1008.79 1009.06 1009.44 1009.17 1008.88
996.47 996.82 997.32 998.40 998.75 998.83 999.49 998.07 998.21 998.54 998.89 999.07 999.47 1000.28 1001.25 1002.41 1002.23 1002.66 1003.04 1003.41 1003.91 1004.75 1005.64 1006.48 1007.09 1007.50 1008.00 1008.37 1008.54 1008.81 1009.07 1009.10 1009.31 1009.10 1009.08 1008.77 1008.91 1008.79 1009.23 1009.29 1009.26 1009.34 1009.30 1009.22
996.23 996.38 997.64 998.28 998.80 998.73 998.65 998.03 998.04 998.36 999.00 999.28 999.68 1000.11 1000.44 1001.74 1002.38 1002.80 1003.50 1004.32 1005.21 1006.10 1006.98 1007.53 1007.96 1008.28 1008.76 1009.16 1009.46 1009.60 1009.80 1009.81 1009.58 1009.42 1009.29 1009.31 1009.33 1009.48 1009.72 1009.77 1009.75 1009.54 1009.81 1009.21
996.81 997.01 997.38 998.41 998.86 999.06 999.43 999.00 998.41 998.82 999.81 1000.61 1001.01 1001.93 1002.07 1002.52 1003.60 1004.39 1005.20 1006.22 1006.96 1007.71 1008.19 1008.48 1008.76 1009.27 1009.72 1010.14 1010.17 1010.19 1010.37 1010.34 1010.01 1009.74 1009.55 1009.69 1009.97 1009.98 1010.04 1009.88 1009.77 1009.40 1009.25 1008.59
997.04 997.74 998.21 998.70 998.81 999.86 1000.06 999.89 999.52 999.56 1001.37 1001.98 1002.34 1003.18 1003.69 1004.37 1005.46 1006.64 1007.66 1008.26 1008.63 1009.04 1009.22 1009.43 1009.84 1010.20 1010.51 1010.62 1010.67 1011.00 1010.90 1010.65 1010.40 1010.19 1010.20 1010.04 1010.44 1010.09 1009.57 1009.63 1009.39 1009.08 1008.66 1008.08
998.09 998.06 998.70 998.67 999.36 999.74 1000.18 1001.13 1001.13 1001.43 1003.24 1004.02 1004.53 1005.25 1005.67 1005.58 1006.50 1008.40 1008.82 1009.21 1009.57 1009.94 1010.29 1010.66 1011.05 1011.13 1011.08 1011.14 1011.68 1011.75 1011.49 1011.25 1011.04 1011.01 1011.33 1011.26 1010.28 1009.78 1009.58 1009.48 1009.21 1008.71 1008.04 1007.13
998.70 999.27 999.49 999.61 1000.31 1001.56 1002.18 1002.67 1002.91 1003.18 1006.19 1005.68 1006.22 1006.75 1007.18 1007.38 1008.75 1009.29 1009.71 1010.05 1010.52 1010.98 1011.51 1011.92 1011.91 1011.94 1012.10 1012.65 1012.72 1012.53 1012.35 1012.13 1012.24 1012.12 1011.47 1010.75 1010.30 1009.84 1009.57 1009.09 1008.71 1007.66 1006.94 1006.75
999.63 1000.32 1000.22 1000.96 1001.85 1002.87 1003.30 1003.62 1004.27 1006.13 1006.60 1007.02 1007.73 1008.46 1008.79 1009.32 1009.76 1010.35 1010.89 1011.42 1011.88 1012.37 1012.57 1012.84 1012.97 1013.10 1013.41 1013.39 1013.35 1013.22 1013.15 1013.19 1012.71 1011.91 1011.37 1010.71 1010.07 1009.70 1009.21 1008.31 1007.62 1007.26 1006.60 1005.63
1001.00 1001.30 1001.89 1002.52 1003.93 1004.43 1004.80 1005.49 1006.43 1006.91 1007.58 1008.24 1008.98 1009.75 1010.10 1010.65 1011.33 1011.85 1012.37 1012.87 1013.40 1013.85 1014.16 1014.28 1014.32 1014.27 1014.19 1014.23 1014.37 1014.13 1013.63 1012.91 1012.36 1011.90 1011.14 1010.49 1009.93 1009.36 1008.26 1007.71 1007.52 1007.19 1006.12 1005.23
1001.82 1002.16 1003.14 1003.93 1005.57 1005.90 1006.27 1006.85 1007.42 1008.04 1008.85 1009.52 1010.05 1010.62 1011.27 1011.84 1012.65 1013.18 1013.68 1014.46 1014.86 1015.15 1015.33 1015.36 1015.24 1015.22 1015.24 1015.23 1014.79 1014.24 1013.58 1013.14 1012.46 1011.74 1011.04 1010.49 1009.89 1008.87 1007.90 1007.68 1007.36 1006.98 1006.29 1005.48
1002.22 1002.58 1004.40 1005.60 1006.26 1006.71 1007.31 1007.89 1008.58 1009.17 1009.78 1010.32 1010.98 1011.57 1012.32 1013.04 1013.75 1014.41 1015.10 1015.65 1015.94 1016.13 1016.18 1016.17 1016.26 1016.17 1015.94 1015.55 1014.84 1014.07 1013.71 1013.06 1012.42 1011.82 1011.22 1010.67 1009.66 1008.74 1007.83 1007.60 1007.31 1006.74 1005.97 1005.33
1003.01 1003.40 1003.80 1004.78 1006.07 1006.31 1007.91 1008.78 1009.29 1009.78 1010.50 1011.07 1011.50 1012.22 1013.07 1013.67 1014.51 1015.41 1016.10 1016.67 1016.89 1017.03 1017.13 1017.04 1016.94 1016.68 1016.19 1015.42 1014.96 1014.60 1014.27 1013.76 1013.01 1012.20 1011.58 1011.06 1010.22 1008.92 1008.03 1007.69 1006.87 1005.85 1005.43 1004.62
Thickness
5652 5646 5654 5675 5681 5685 5689 5684 5686 5691 5705 5694 5692 5692 5695 5707 5705 5714 5734 5740 5742 5744 5750 5746 5741 5739 5747 5745 5741 5743 5751 5758 5765 5764 5761 5761 5764 5767 5767 5769 5771 5767 5762 5753
5644 5646 5678 5681 5678 5671 5673 5672 5676 5689 5699 5694 5690 5687 5698 5701 5706 5714 5723 5723 5732 5736 5744 5743 5727 5731 5738 5737 5721 5735 5736 5744 5752 5754 5754 5759 5760 5763 5765 5767 5763 5757 5751 5745
5653 5667 5672 5670 5667 5662 5667 5666 5669 5674 5692 5694 5694 5687 5697 5702 5705 5715 5720 5720 5728 5732 5738 5742 5739 5730 5734 5719 5720 5733 5738 5738 5737 5740 5743 5745 5747 5751 5753 5753 5750 5749 5745 5741
5655 5673 5664 5662 5659 5666 5657 5674 5669 5669 5671 5669 5687 5669 5696 5700 5703 5710 5719 5723 5724 5727 5734 5739 5739 5725 5718 5718 5722 5723 5722 5726 5727 5727 5731 5729 5728 5731 5739 5742 5748 5747 5738 5736
5650 5657 5658 5654 5661 5669 5664 5680 5675 5669 5666 5670 5677 5651 5677 5698 5701 5711 5718 5719 5722 5725 5732 5737 5736 5724 5718 5719 5719 5719 5714 5717 5721 5718 5718 5717 5716 5731 5735 5736 5732 5730 5727 5724
5657 5669 5666 5666 5669 5670 5675 5671 5674 5676 5674 5654 5677 5651 5651 5664 5676 5716 5721 5722 5717 5721 5725 5723 5716 5717 5717 5717 5711 5703 5700 5705 5714 5709 5710 5716 5720 5723 5725 5723 5719 5716 5714 5712
5645 5657 5665 5670 5660 5669 5666 5661 5647 5641 5655 5655 5692 5666 5676 5652 5655 5706 5710 5702 5699 5701 5701 5702 5703 5705 5710 5704 5697 5690 5691 5694 5702 5708 5708 5706 5708 5709 5705 5706 5708 5707 5710 5707
5634 5627 5656 5665 5661 5667 5667 5668 5660 5642 5656 5674 5696 5667 5685 5676 5669 5690 5696 5693 5690 5689 5689 5685 5684 5689 5693 5695 5688 5685 5688 5687 5690 5692 5692 5694 5695 5700 5699 5696 5695 5691 5691 5691
5639 5647 5667 5663 5668 5677 5669 5660 5689 5672 5659 5657 5674 5688 5685 5685 5675 5682 5681 5680 5674 5674 5675 5676 5675 5677 5674 5673 5674 5678 5676 5675 5678 5680 5682 5680 5681 5680 5678 5675 5674 5675 5676 5675
5643 5629 5658 5659 5662 5667 5667 5673 5655 5671 5627 5627 5653 5652 5688 5681 5675 5675 5671 5671 5667 5667 5666 5664 5664 5663 5664 5664 5665 5666 5668 5666 5667 5669 5670 5669 5670 5670 5666 5666 5663 5663 5663 5663
5632 5628 5636 5653 5643 5647 5657 5645 5645 5666 5674 5652 5632 5637 5655 5669 5686 5675 5671 5666 5664 5660 5659 5659 5659 5661 5664 5665 5661 5655 5658 5660 5660 5660 5657 5657 5655 5655 5659 5655 5653 5652 5650 5651
5640 5633 5619 5637 5654 5658 5667 5660 5639 5639 5629 5652 5660 5664 5660 5633 5681 5673 5667 5662 5658 5656 5654 5653 5649 5649 5648 5649 5651 5647 5646 5650 5650 5649 5650 5649 5647 5645 5643 5641 5637 5639 5638 5638
5642 5631 5603 5603 5596 5637 5640 5649 5651 5636 5637 5617 5618 5637 5668 5655 5663 5661 5655 5650 5645 5643 5643 5642 5640 5637 5636 5634 5636 5634 5633 5637 5636 5634 5635 5636 5633 5631 5630 5629 5630 5627 5620 5622
5644 5631 5620 5616 5627 5635 5628 5640 5643 5631 5592 5606 5607 5603 5625 5645 5645 5644 5643 5642 5639 5635 5632 5628 5628 5627 5625 5625 5622 5624 5625 5628 5624 5622 5623 5622 5622 5619 5618 5616 5613 5612 5610 5605
5630 5615 5628 5599 5620 5621 5622 5635 5631 5629 5632 5616 5632 5620 5615 5627 5621 5626 5632 5634 5627 5625 5622 5617 5613 5613 5613 5610 5609 5612 5609 5608 5606 5608 5609 5608 5610 5612 5610 5603 5596 5589 5589 5587
5620 5609 5619 5602 5614 5611 5589 5626 5631 5632 5634 5637 5635 5625 5628 5618 5627 5623 5622 5621 5617 5611 5608 5605 5602 5601 5598 5598 5598 5598 5596 5598 5596 5599 5598 5601 5597 5596 5588 5585 5583 5578 5573 5567
5603 5615 5606 5596 5610 5615 5607 5623 5628 5630 5630 5631 5622 5631 5638 5625 5622 5620 5617 5612 5604 5598 5592 5590 5588 5587 5585 5583 5582 5582 5582 5583 5585 5586 5586 5584 5582 5578 5572 5568 5562 5557 5545 5546
5608 5611 5615 5595 5606 5590 5602 5623 5631 5625 5620 5618 5614 5611 5616 5614 5610 5605 5601 5591 5586 5580 5577 5576 5576 5572 5570 5568 5569 5570 5568 5568 5571 5572 5573 5570 5563 5559 5552 5548 5544 5543 5538 5538
5615 5603 5593 5588 5599 5594 5598 5607 5612 5613 5598 5604 5601 5600 5599 5597 5587 5577 5574 5570 5567 5565 5564 5564 5562 5559 5556 5556 5557 5553 5554 5556 5558 5558 5556 5555 5545 5545 5547 5541 5538 5534 5530 5526
5598 5605 5594 5601 5589 5587 5595 5599 5607 5607 5571 5585 5582 5577 5576 5584 5562 5552 5561 5558 5556 5553 5551 5548 5544 5544 5545 5546 5540 5539 5540 5542 5542 5541 5533 5530 5539 5541 5537 5531 5526 5523 5521 5521
5579 5580 5580 5590 5585 5577 5585 5586 5589 5578 5546 5569 5567 5564 5563 5560 5550 5550 5551 5547 5544 5540 5535 5531 5531 5531 5529 5523 5521 5522 5523 5525 5522 5520 5525 5530 5531 5531 5528 5527 5523 5524 5520 5507
5571 5564 5574 5579 5569 5557 5578 5577 5565 5552 5556 5556 5553 5549 5547 5546 5543 5539 5536 5531 5527 5522 5520 5517 5515 5513 5509 5509 5509 5509 5509 5507 5511 5518 5522 5525 5528 5527 5526 5525 5523 5513 5507 5504
5556 5565 5561 5567 5552 5560 5562 5557 5552 5551 5546 5544 5540 5535 5534 5531 5526 5523 5519 5514 5508 5502 5497 5496 5494 5494 5495 5494 5491 5491 5497 5506 5511 5514 5520 5523 5524 5522 5524 5522 5510 5501 5501 5497
5558 5564 5551 5553 5539 5542 5545 5545 5543 5540 5534 5530 5528 5525 5520 5517 5510 5506 5502 5492 5488 5483 5481 5480 5481 5480 5478 5477 5481 5488 5495 5500 5506 5512 5516 5517 5516 5519 5521 5512 5504 5496 5493 5490
5556 5559 5535 5528 5534 5535 5534 5533 5530 5527 5524 5520 5517 5513 5507 5502 5496 5490 5483 5476 5473 5470 5469 5468 5464 5463 5465 5469 5477 5486 5491 5497 5503 5507 5508 5509 5515 5517 5515 5505 5498 5495 5494 5491
5549 5548 5546 5538 5536 5538 5526 5522 5521 5518 5513 5510 5509 5503 5497 5493 5485 5476 5468 5462 5458 5455 5452 5453 5453 5454 5459 5467 5474 5479 5483 5487 5492 5497 5500 5501 5504 5510 5508 5499 5497 5499 5495 5493